User: anonymous   Login
Location: Unspecified
(0.0000°N, 0.0000°E)
Time: 01:49:38
(UTC+00:00)
Language:

OBJECT C - Orbit

View from above orbital plane
View from above orbital plane
View from above satellite
View from above satellite

Ground track
Ground track

The orbit is defined by the following mean orbital elements,

1 65261U          26145.61425251 +.00000000 +00000-0 +22859-3 0 00006
2 65261  97.5211 272.9743 0014906  45.2932 314.9512 15.15224244    01
Epoch (UTC): 25 May 2026 14:44:31
Eccentricity: 0.0014906
inclination: 97.5211°
perigee height: 510 km
apogee height: 531 km
right ascension of ascending node: 272.9743°
argument of perigee: 45.2932°
revolutions per day: 15.15224244
mean anomaly at epoch: 314.9512°

The dashed part of the orbit path shows where the satellite is in the earth's shadow,  

DLR